Location: Tamazert
(32.6352°N, 5.2072°W)
Time: 05:12:51
(UTC+00:00)

Vanguard 1 Rocket - Pass Details

Date: 13 October 2022
Orbit: 650 x 4225 km, 34.3° (Epoch: 05 December)

Event Time Altitude Azimuth Distance (km) Brightness Sun altitude
Rises 21:10:13 0° 281° (WNW) 8,288 13.1 -42.3°
Reaches altitude 10° 21:16:27 10° 282° (WNW) 6,974 12.5 -43.5°
Enters shadow 21:36:31 79° 264° (W) 2,619 9.4 -47.4°
Maximum altitude 21:37:51 86° 197° (SSW) 2,479 - -47.6°
Drops below altitude 10° 21:48:29 10° 110° (ESE) 3,796 - -49.6°
Sets 21:50:50 0° 109° (ESE) 4,470 - -50.0°
